Key statistics
Satellite KEPLER-0 (KIPP) at a glance.
Uptime
2280
Days in orbit
Revolutions
≈ 15.5
Per day
Orbit
SSO
Sun Synchronous Orbit
Inclination
97.3
Latest
Satellite identification and parameters
Extended collection of information and parameters for KEPLER-0 (KIPP).
Object identification
Identified? True
Debris? False
Object name: KEPLER-0 (KIPP)
International designator: 2018-008C
Object number (NORAD): 43157
Object ID (CCSDS): 43157
Country: CANADA (CA)
Current information (Y/N): Y
RCS size: MEDIUM
Orbital parameters
Decay date: April 17, 2024
Period: 92.732 minutes
Inclination: 97.268 deg
SMA: 6786.509 km
Apoapsis: 411.64 km
Periapsis: 405.108 km
RAAN: 98.9771 deg
Eccentricy: 0.0004812
Argument of periapsis: 168.0301 deg
Mean anomaly: 192.1067 deg
Mean motion: 15.52862916 rev/day
Mean motion (dot): 0.0017246 rev/day2
B* drag term: 0.0027247 1/REarth
Two-line elements (TLE)
Creation date: Feb. 12, 2024, 3:07 a.m.
Reference frame: TEME
Reference center: EARTH
Epoch: Feb. 11, 2024, 4:37 p.m. UTC
TLE line 0: 0 KEPLER-0 (KIPP)
TLE line 1: 1 43157U 18008C 24042.69258092 .00172460 00000-0 27247-2 0 9994
TLE line 2: 2 43157 97.2680 98.9771 0004812 168.0301 192.1067 15.52862916335348
Live tracking on map
Satellite KEPLER-0 (KIPP) has decayed and is no longer in orbit. No tracking available.
In-orbit conjunctions
Satellite KEPLER-0 (KIPP) has decayed and is no longer in orbit. No conjunctions available.
Associated space launch
Jilin-1 is a series of Chinese commercial remote sensing satellites. These two satellites are sharing the ride with several cubesats.
KEPLER-0 (KIPP) was lifted into orbit during the mission ‘Long March 11 | Jilin-1-07 (Deqing-1), Jilin-1-08’, on board a Long March 11 space rocket.
The launch took place on Jan. 19, 2018, 4:12 a.m. from Launch Area 95A.
For more information about the launch, click the button.
Long March 11 | Jilin-1-07 (Deqing-1), Jilin-1-08
Agency: N/A
Status: Launch Successful
Launch date: Jan. 19, 2018, 4:12 a.m. UTC
Rocket: Long March 11
Launch pad: Launch Area 95A
Location: Jiuquan Satellite Launch Center, People's Republic of China
...
Latest news about this satellite
There are no fresh news available about this satellite. Check back as we update our databases every day.
Newsletter sign-up
Weekly statistics, charts and insights to help you stay on top of the space industry.
